TimeCDT,TemperatureF,Dew PointF,Humidity,Sea Level PressureIn,VisibilityMPH,Wind Direction,Wind SpeedMPH,Gust SpeedMPH,PrecipitationIn,Events,Conditions,WindDirDegrees,DateUTC
12:56 AM,73.0,70.0,90,30.03,10.0,Calm,Calm,-,N/A,,Clear,0,2013-06-20 05:56:00
1:56 AM,72.0,70.0,93,30.03,10.0,Calm,Calm,-,N/A,,Clear,0,2013-06-20 06:56:00
2:56 AM,72.0,69.1,91,30.02,10.0,Calm,Calm,-,N/A,,Clear,0,2013-06-20 07:56:00
3:56 AM,72.0,69.1,91,30.03,10.0,Calm,Calm,-,N/A,,Clear,0,2013-06-20 08:56:00
4:56 AM,72.0,69.1,91,30.04,10.0,Calm,Calm,-,N/A,,Clear,0,2013-06-20 09:56:00
5:56 AM,72.0,69.1,91,30.05,7.0,Calm,Calm,-,N/A,,Scattered Clouds,0,2013-06-20 10:56:00
6:56 AM,73.9,71.1,91,30.06,10.0,Calm,Calm,-,N/A,,Scattered Clouds,0,2013-06-20 11:56:00
7:56 AM,79.0,73.0,82,30.09,10.0,Calm,Calm,-,N/A,,Scattered Clouds,0,2013-06-20 12:56:00
8:56 AM,82.9,71.1,67,30.10,10.0,NNE,4.6,-,N/A,,Mostly Cloudy,30,2013-06-20 13:56:00
9:10 AM,82.4,71.6,70,30.11,10.0,North,6.9,-,N/A,,Overcast,360,2013-06-20 14:10:00
9:14 AM,82.4,71.6,70,30.11,10.0,North,8.1,-,N/A,,Mostly Cloudy,360,2013-06-20 14:14:00
9:56 AM,82.9,71.1,67,30.11,10.0,NNW,5.8,-,N/A,,Mostly Cloudy,340,2013-06-20 14:56:00
10:56 AM,87.1,70.0,57,30.10,10.0,North,6.9,-,N/A,,Mostly Cloudy,360,2013-06-20 15:56:00
11:56 AM,88.0,70.0,55,30.10,10.0,Calm,Calm,-,N/A,,Mostly Cloudy,0,2013-06-20 16:56:00
12:56 PM,89.1,69.1,52,30.08,10.0,NNW,9.2,-,N/A,,Mostly Cloudy,340,2013-06-20 17:56:00
1:56 PM,90.0,69.1,50,30.07,7.0,NE,6.9,-,N/A,,Mostly Cloudy,40,2013-06-20 18:56:00
2:56 PM,89.1,66.9,48,30.05,10.0,NE,4.6,-,N/A,,Mostly Cloudy,40,2013-06-20 19:56:00
3:56 PM,84.0,72.0,67,30.06,10.0,SSW,9.2,-,N/A,,Mostly Cloudy,200,2013-06-20 20:56:00
4:56 PM,75.9,68.0,76,30.07,10.0,SW,4.6,-,N/A,,Mostly Cloudy,230,2013-06-20 21:56:00
5:56 PM,78.1,69.1,74,30.05,10.0,Calm,Calm,-,N/A,,Mostly Cloudy,0,2013-06-20 22:56:00
6:56 PM,79.0,70.0,74,30.05,10.0,Calm,Calm,-,N/A,,Mostly Cloudy,0,2013-06-20 23:56:00
7:56 PM,77.0,69.1,76,30.06,10.0,SW,3.5,-,N/A,,Mostly Cloudy,220,2013-06-21 00:56:00
8:56 PM,75.0,69.1,82,30.08,10.0,West,3.5,-,N/A,,Mostly Cloudy,270,2013-06-21 01:56:00
9:56 PM,73.0,69.1,87,30.09,10.0,Calm,Calm,-,N/A,,Scattered Clouds,0,2013-06-21 02:56:00
10:56 PM,73.9,69.1,85,30.09,10.0,NNW,3.5,-,N/A,,Scattered Clouds,330,2013-06-21 03:56:00
11:56 PM,73.0,69.1,87,30.09,10.0,Calm,Calm,-,N/A,,Clear,0,2013-06-21 04:56:00